Regional Weather Roundup
Issued by NWS Northern Indiana

Home | Current Version | Previous Version | Text Only | Print | Product List | Glossary On
Versions: 1 2 3 4 5 6 7 8 9 10 11 12 13 14 15 16 17 18 19 20 21 22 23 24 25 26 27 28 29 30 31 32 33 34 35 36 37 38 39 40 41 42 43 44 45 46 47 48 49 50
088
ASUS43 KIWX 240410
RWRIWX

KIWX WEATHER ROUNDUP
NATIONAL WEATHER SERVICE NORTHERN INDIANA
1200 AM EDT SAT JUN 24 2017

NOTE: "FAIR" INDICATES FEW OR NO CLOUDS BELOW 12,000 FEET WITH NO
SIGNIFICANT WEATHER AND/OR OBSTRUCTIONS TO VISIBILITY.

* THESE STATIONS ARE NOT UNDER NWS QUALITY CONTROL. THEY ALSO MAY NOT
  REPORT WEATHER SUCH AS PRECIPITATION OR FOG.

INZ001>027-240500-
NORTHERN INDIANA

CITY           SKY/WX    TMP DP  RH WIND       PRES   REMARKS
GARY*          PTCLDY    72  53  50 W12G18    29.83R
VALPARAISO     MOCLDY    72  55  55 NW5       29.82R
LAPORTE*       MOCLDY    69  56  61 NW9       29.82R
KNOX*          PTCLDY    68  48  49 W6        29.81R
SOUTH BEND     CLOUDY    69  53  56 W8        29.80R
GOSHEN         CLOUDY    66  55  67 SW8       29.79R
MONTICELLO*    MOCLDY    69  58  69 W8        29.82R
LOGANSPORT*    CLEAR     63  59  88 SW7       29.84R
ROCHESTER*     PTCLDY    70  55  60 SW6       29.82R
WARSAW*        CLOUDY    66  54  63 CALM      29.80R
AUBURN*        CLEAR     63  52  67 SW3       29.80S
FORT WAYNE     PTCLDY    61  56  83 SW6       29.81R
HUNTINGTON*    PTCLDY    62  57  83 CALM      29.81R
PERU/GRISSOM   CLEAR     62  61  97 SW6       29.81R
MARION*        PTCLDY    61  57  88 SW5       29.84R

$$
INZ028>050-240500-
CENTRAL INDIANA

CITY           SKY/WX    TMP DP  RH WIND       PRES   REMARKS
LAFAYETTE      MOCLDY    66  62  87 W7        29.84R
MUNCIE*        CLEAR     66  60  81 SW6       29.84R
INDIANAPOLIS   CLOUDY    63  60  90 SW7       29.86R

$$
MIZ043>046-050>051-056>058-064>065-071>073-077>080-240500-
SOUTHWEST LOWER MICHIGAN

CITY           SKY/WX    TMP DP  RH WIND       PRES   REMARKS
BATTLE CREEK   LGT RAIN  65  56  72 W8        29.78R
BENTON HARBOR  MOCLDY    68  58  70 W6        29.79R
COLDWATER*     PTCLDY    61  56  84 SW7       29.78R
HILLSDALE*     CLEAR     59  50  72 CALM      29.77S
HOLLAND        PTCLDY    68  56  65 NW6       29.78R
GRAND RAPIDS   MOCLDY    66  58  75 W12       29.75R
KALAMAZOO      MOCLDY    67  51  56 W6        29.77R
STURGIS*       MOCLDY    63  56  79 SW5       29.78R
THREE RIVERS*  FAIR      63  55  73 NW5       29.79R

$$
OHZ001>008-015>018-024>025-240500-
NORTHWEST OHIO

CITY           SKY/WX    TMP DP  RH WIND       PRES   REMARKS
WAUSEON*       FAIR      63  55  77 W6        29.76S
DEFIANCE       CLEAR     60  55  83 SW3       29.77S
FINDLAY        CLEAR     64  58  80 W7        29.77R
TOLEDO EXPRESS CLEAR     63  58  83 W7        29.75R
TOLEDO METCALF CLEAR     65  60  84 W6        29.75R
LIMA           CLEAR     63  58  83 W6        29.80R

$$
AND FOR LAKE MICHIGAN COASTAL AND OPEN LAKE BUOY OBSERVATIONS

STATION/POSITION TEMP    WIND        PRES    VSBY  WAVE
                 AIR SEA DIR/SP/G                  HT/PER
                 (F)     (DEG/KT/KT) (MB)    (MI)  (FT/S)
CALUMET HARBOR    72     290/  7/ 14 1009.5R
MICHIGAN CITY     70     290/ 18/ 20   N/A
BURNS HARBOR      70     290/ 11/ 13 1009.8R
SOUTH LAKE BUOY   66 63  330/ 16/ 17 1008.4R         1/ 3
4 MI NW BRIDGMAN  69 68  340/ 12/ 16 1009.0          1/ 2
MICHIGAN CITY     70 68  310/ 14/ 17   N/A           2/ 2

$$
&&




USA.gov is the U.S. government's official web portal to all federal, state and local government web resources and services.